Location: Unspecified
(0.0000°N, 0.0000°E)
Time: 17:09:01
(UTC+00:00)

SR - All Passes

Search period start: 20 June 2018 00:00
Search period end: 30 June 2018 00:00
Orbit: 575 x 882 km, 66.7° (Epoch: 19 June)

Date Brightness Start Highest point End Pass type
(mag) Time Alt. Az. Time Alt. Az. Time Alt. Az.
20 Jun - 08:21:03 10° NNW 08:26:51 78° WSW 08:32:17 10° SSE daylight
20 Jun - 19:08:32 10° SE 19:10:23 12° ESE 19:12:16 10° E night (unlit)
20 Jun - 20:48:22 10° SW 20:52:04 27° WNW 20:55:59 10° NNW visible
21 Jun - 07:31:52 10° N 07:37:20 43° ENE 07:42:31 10° SE daylight
21 Jun - 09:16:24 10° W 09:19:06 14° WSW 09:21:44 10° SW daylight
21 Jun - 19:58:13 10° SSW 20:02:33 80° WNW 20:07:13 10° NNE visible
22 Jun - 06:43:57 10° NNE 06:47:46 18° ENE 06:51:28 10° ESE daylight
22 Jun - 08:24:34 10° NW 08:29:41 34° WSW 08:34:32 10° S daylight
22 Jun - 19:09:14 10° S 19:13:09 33° ESE 19:17:17 10° NE visible
22 Jun - 20:54:25 10° WNW 20:55:02 10° WNW 20:55:39 10° WNW visible
23 Jun - 07:34:27 10° NNW 07:40:15 83° WSW 07:45:40 10° SSE daylight
23 Jun - 18:22:19 10° SE 18:23:45 11° ESE 18:25:13 10° E visible
23 Jun - 20:01:37 10° SW 20:05:26 29° WNW 20:09:30 10° N visible
24 Jun - 06:45:22 10° N 06:50:44 40° ENE 06:55:49 10° SE daylight
24 Jun - 08:29:30 10° WNW 08:32:30 15° WSW 08:35:25 10° SW daylight
24 Jun - 19:11:34 10° SSW 19:15:56 88° WNW 19:20:37 10° NNE visible
25 Jun - 05:57:36 10° NNE 06:01:09 17° ENE 06:04:36 10° ESE daylight
25 Jun - 07:37:54 10° NW 07:43:05 36° WSW 07:48:00 10° S daylight
25 Jun - 18:22:41 10° S 18:26:31 30° ESE 18:30:35 10° NE visible
25 Jun - 20:06:54 10° W 20:08:23 11° WNW 20:09:54 10° NW visible
26 Jun - 06:47:52 10° NNW 06:53:39 89° WSW 06:59:03 10° SSE daylight
26 Jun - 17:36:20 10° ESE 17:37:08 10° ESE 17:37:57 10° E daylight
26 Jun - 19:14:51 10° SW 19:18:48 32° WNW 19:23:00 10° N visible
27 Jun - 05:58:52 10° N 06:04:08 37° ENE 06:09:07 10° SE daylight
27 Jun - 07:42:39 10° WNW 07:45:54 16° WSW 07:49:03 10° SW daylight
27 Jun - 18:24:55 10° SSW 18:29:18 85° ESE 18:34:01 10° NNE visible
28 Jun - 05:11:17 10° NNE 05:14:33 15° ENE 05:17:42 10° ESE visible
28 Jun - 06:51:13 10° NW 06:56:30 38° WSW 07:01:26 10° S daylight
28 Jun - 17:36:08 10° SSE 17:39:54 28° ESE 17:43:53 10° NE daylight
28 Jun - 19:19:46 10° W 19:21:45 13° WNW 19:23:47 10° NW visible
29 Jun - 06:01:17 10° NNW 06:07:04 85° ENE 06:12:25 10° SSE daylight
29 Jun - 18:28:07 10° SW 18:32:09 35° WNW 18:36:30 10° N visible
